Location: Unspecified
(43.4680°N, 87.1740°E)
Time: 20:47:06
(UTC+00:00)

Cosmos 1805 - Pass Details

Date: 17 April 2021
Orbit: 524 x 530 km, 82.5° (Epoch: 11 May)

Event Time Altitude Azimuth Distance (km) Brightness Sun altitude
Rises 22:25:16 0° 341° (NNW) 2,681 6.9 -10.8°
Reaches altitude 10° 22:27:36 10° 330° (NNW) 1,785 5.9 -10.4°
Maximum altitude 22:31:01 30° 269° (W) 977 4.1 -9.9°
Drops below altitude 10° 22:34:26 10° 208° (SSW) 1,769 5.4 -9.3°
Enters shadow 22:35:58 - 200° (SSW) 2,349 6.1 -9.1°
